Location: Bergnerzell
(49.1816°N, 10.2565°E)
Time: 21:58:52
(UTC+00:00)

Cosmos 468 Rocket - Pass Details

Date: 23 May 2024
Orbit: 741 x 777 km, 74.0° (Epoch: 14 June)

Event Time Altitude Azimuth Distance (km) Brightness Sun altitude
Rises 00:40:08 0° 332° (NNW) 3,269 7.9 -17.7°
Reaches altitude 10° 00:42:36 10° 327° (NNW) 2,335 7.0 -17.5°
Maximum altitude 00:47:39 47° 255° (WSW) 1,023 4.4 -17.2°
Enters shadow 00:49:50 30° 201° (SSW) 1,364 4.7 -17.1°
